Location: ?
(35.4122°N, 139.2990°E)
Time: 13:20:42
(UTC+00:00)

Daily predictions for brighter satellites

Satellite Brightness Start Highest point End
(mag) Time Altitude Azimuth Time Altitude Azimuth Time Altitude Azimuth
Cosmos 2237 Rocket 3.8 12:18:29 31° WNW 12:18:29 31° WNW 12:23:18 10° N
USA 267 4.4 12:19:37 33° NNE 12:19:37 33° NNE 12:24:21 10° NNW
USA 281 4.5 16:40:24 34° N 16:40:24 34° N 16:44:14 10° N
ADEOS II 4.3 16:44:39 10° NNE 16:46:26 21° NNE 16:46:26 21° NNE
Resurs 1-4 Rocket 4.2 17:24:48 10° N 17:26:19 18° NNW 17:26:19 18° NNW
Cosmos 2181 Rocket 4.1 17:35:03 72° NNE 17:35:03 72° NNE 17:40:48 10° N
COSMOS 2406 4.3 17:36:52 35° N 17:36:52 35° N 17:40:20 10° N
SL-16 R/B 2.5 17:44:16 77° NNW 17:44:16 77° NNW 17:49:59 10° NNW
Cosmos 2251 Rocket 4.5 17:45:24 39° ESE 17:45:58 41° ESE 17:50:53 10° NNE
SL-8 Rocket 4.3 17:41:17 10° N 17:45:53 52° NNW 17:45:53 52° NNW
Cosmos 2082 Rocket 3.7 17:49:32 24° NNW 17:49:32 24° NNW 17:52:27 10° N
COSMOS 2455 3.4 17:47:18 48° SE 17:48:05 51° ESE 17:53:54 10° NE
Meteor 2-1 Rocket 4.4 17:48:38 66° E 17:48:38 66° E 17:54:05 10° NNE
CZ-2C R/B 3.6 17:44:30 10° NNE 17:48:56 35° E 17:49:44 33° ESE
Cosmos 864 Rocket 4.4 17:45:41 10° N 17:51:33 75° NW 17:51:33 75° NW
CZ-4C R/B 3.7 18:00:06 19° NNW 18:00:06 19° NNW 18:02:50 10° N
CZ-2D R/B 4.2 18:01:04 10° NNW 18:02:37 15° NW 18:02:37 15° NW
Cosmos 2278 4.3 18:00:12 10° NNW 18:05:45 55° ENE 18:11:15 10° SE
SL-16 R/B 3.2 18:02:22 10° N 18:07:49 47° ENE 18:13:14 10° SE
Tiangong 0.5 18:10:19 21° ENE 18:10:19 21° ENE 18:11:46 10° ENE
SL-8 R/B 4.3 18:10:15 47° NNW 18:10:15 47° NNW 18:14:26 10° NE
Cosmos 1140 Rocket 3.9 18:11:00 48° NNW 18:11:00 48° NNW 18:15:13 10° N
H-2A R/B 3.7 18:06:28 10° NNE 18:11:17 33° E 18:16:07 10° SSE
SeaSat 1 2.9 18:08:21 10° SE 18:13:10 60° ENE 18:18:01 10° NNW
Timation 1 Rocket 4.3 18:13:53 61° W 18:14:15 62° WNW 18:20:12 10° NNE
Cosmos 2366 rocket 4.2 18:08:39 10° NNW 18:14:08 49° WNW 18:14:08 49° WNW
DELTA 2 R/B (1) 3.4 18:14:29 74° W 18:15:00 87° NNW 18:20:36 10° ENE
CENTAUR R/B 2.6 18:13:44 40° S 18:15:24 57° ESE 18:21:33 10° NE
CZ-4 R/B 3.8 18:14:28 10° NNE 18:19:07 79° ESE 18:19:55 61° S
Cosmos 1375 Rocket 4.4 18:13:03 10° NNW 18:19:34 85° WSW 18:25:56 10° SSE
Lacrosse 5 3.5 18:21:13 22° NW 18:21:17 22° NW 18:25:11 10° NNE
OAO 1 Rocket 4.3 18:20:46 68° SW 18:21:18 76° S 18:26:39 10° E
Atlas Centaur 2 3.8 18:24:18 19° S 18:26:13 22° SSE 18:31:13 10° ESE
Cosmos 2218 Rocket 4.4 18:22:05 10° NNW 18:27:31 40° W 18:27:31 40° W
ADEOS II 4.1 18:25:46 10° NNW 18:27:18 14° NW 18:27:18 14° NW
Cosmos 1544 Rocket 3.4 18:34:13 62° W 18:34:13 62° W 18:38:30 10° N
Meteor 2-3 Rocket 3.7 18:30:57 10° N 18:36:46 87° E 18:42:33 10° S
Cosmos 407 Rocket 3.7 18:37:50 45° W 18:38:34 48° WNW 18:43:40 10° N
Envisat 3.8 18:38:13 10° N 18:42:36 31° WNW 18:42:36 31° WNW
Thor Agena Rocket 3.8 18:42:09 10° NNE 18:47:16 67° ESE 18:52:25 10° S
Cosmos 1812 4.1 18:48:39 10° SSE 18:51:52 34° E 18:55:05 10° NNE
YAOGAN 6 3.5 18:49:35 10° N 18:51:30 28° NW 18:51:30 28° NW
IRS-1D 3.5 18:47:38 10° N 18:52:58 76° WNW 18:57:22 15° SSW
IRAS Rocket 4.4 18:50:18 10° N 18:55:40 50° WNW 18:58:41 25° SW
Cosmos 2237 4.3 18:53:10 10° NNW 18:58:38 50° WSW 19:04:04 10° S
Kosmos-1783 3.7 18:56:01 12° NNW 18:58:44 77° ENE 19:03:39 10° SE
Okean 1-7 Rocket 3.6 18:55:06 10° N 18:59:35 81° E 19:04:00 10° S
ISS -3.6 19:00:19 46° WSW 19:00:41 49° SW 19:03:58 10° SSE
Cosmos 1190 Rocket 4.0 18:57:44 24° SW 19:00:44 60° WNW 19:05:52 10° N
Cosmos 540 Rocket 4.3 18:55:56 10° N 19:00:55 52° ENE 19:05:54 10° SSE
Cosmos 1833 4.2 18:58:53 20° SSW 19:02:50 68° WNW 19:08:33 10° NNE
Cosmos 1606 Rocket 3.9 18:58:38 10° S 19:02:53 65° E 19:07:11 10° NNE
Cosmos 1934 Rocket 4.0 18:58:30 10° N 19:04:50 89° WSW 19:11:11 10° S
Cosmos 1763 Rocket 3.5 19:00:30 10° NNW 19:05:39 82° ENE 19:10:51 10° SSE
ASTRO E2 4.0 19:12:28 17° SSW 19:12:28 17° SSW 19:14:34 10° SSE
Cosmos 676 Rocket 3.9 19:11:04 10° SSW 19:16:12 75° WNW 19:21:23 10° NNE
Cosmos 1862 3.5 19:13:48 10° NNW 19:17:19 39° W 19:20:50 10° SSW
Cosmos 2228 4.2 19:17:10 21° W 19:17:58 22° WNW 19:21:17 10° NNW
CBERS-1 4.2 19:17:27 10° NNE 19:22:33 74° ESE 19:27:36 10° S
Cosmos 2360 Rocket 2.1 19:17:18 10° NNW 19:22:56 84° WSW 19:28:33 10° SSE
CZ-2C R/B 3.7 19:23:11 10° NNW 19:26:46 21° WNW 19:29:00 15° WSW
SL-16 R/B 4.3 19:29:21 10° WNW 19:29:21 10° WNW 19:29:26 10° WNW
Cosmos 1602 Rocket 3.9 19:25:07 10° NNW 19:29:19 42° W 19:33:29 10° SSW
ATLAS 5 CENTAUR R/B 1.4 19:28:22 10° SSW 19:31:31 55° ESE 19:34:46 10° NE
Cosmos 2322 Rocket 2.3 19:26:20 10° NNW 19:31:50 53° WSW 19:37:17 10° S
SJ 16-02 3.4 19:28:40 10° SSE 19:32:27 30° E 19:36:15 10° NE
Cosmos 1939 Rocket 2.8 19:28:41 10° N 19:32:36 61° WNW 19:36:30 10° SSW
COSMOS 2455 4.1 19:30:28 14° W 19:34:16 24° NW 19:39:05 10° N
Cosmos 2084 3.6 19:30:53 12° SW 19:34:35 49° NW 19:38:33 10° NNE
SME Rocket 2.9 19:35:19 10° N 19:39:01 59° WNW 19:42:57 10° SSW
Cosmos 2333 Rocket 2.2 19:34:18 10° NNW 19:39:56 61° WSW 19:45:29 10° S
Cosmos 1484 Rocket 2.9 19:36:27 10° N 19:40:03 49° WNW 19:43:40 10° SSW
CZ-3 Stage 3 3.9 19:38:18 10° SSW 19:42:30 32° SE 19:54:52 10° E
ATLAS 5 CENTAUR R/B 4.4 19:18:57 13° W 19:42:43 37° SSW 19:50:23 10° SE
Cosmos 2219 Rocket 2.5 19:38:14 10° NNW 19:43:52 74° ENE 19:49:26 10° SSE
ARGOS 3.1 19:39:50 10° N 19:45:10 74° WNW 19:50:30 10° SSW
Cosmos 1605 Rocket 4.0 19:39:28 10° N 19:45:43 72° W 19:51:50 10° S
Tiangong -2.2 19:42:39 10° WNW 19:45:45 67° SSW 19:48:51 10° SE
Cosmos 1602 3.7 19:42:47 10° NNW 19:46:11 46° W 19:49:33 10° SSW
Cosmos 1666 4.2 19:47:05 10° WNW 19:48:45 13° W 19:50:25 10° WSW
Cosmos 968 Rocket 4.2 19:44:28 10° S 19:49:34 59° ESE 19:54:39 10° NNE
NOSS 3-2 (A) 3.6 19:45:07 10° WSW 19:49:54 42° NW 19:55:24 10° NNE
H-2A R/B 3.1 19:45:59 10° NNW 19:50:26 28° WNW 19:54:56 10° SW
SeaSat 1 4.0 19:48:13 10° SW 19:50:52 15° WSW 19:53:31 10° WNW
SL-16 R/B 3.4 19:47:26 10° NW 19:51:28 20° W 19:55:30 10° SW
Cosmos 1867 4.0 19:48:17 10° SW 19:53:29 46° NW 19:58:45 10° NNE
Iridium 921 4.3 19:50:28 10° N 19:53:45 63° W 19:56:58 10° S
Cosmos 1953 Rocket 3.6 19:51:30 10° N 19:55:53 86° W 20:00:16 10° S
DELTA 2 R/B (1) 4.1 19:56:15 10° W 20:01:43 55° N 20:07:10 10° ENE
